Simultaneous Nadir Overpasses (SNOs) Predictions

Prediction of SNOs between METOP-B and NOAA-19 Satellite Orbit:

Table of predicted SNOs for the next 14.0 days since TLE Epoch: 5/1/2020
Index Date (METOP-B) Time (METOP-B) Lat,Lon (METOP-B) SZA (METOP-B ) Date (NOAA-19) Time (NOAA-19) Lat,Lon (NOAA-19) SZA (NOAA-19 ) Distance(km) Time Diff (sec)
1 05/08/2020 14:02:29 80.12, -7.16 63.69 05/08/2020 14:01:23 80.11, -10.77 63.41 69.08 66
2 05/08/2020 14:53:15 -79.97, 158.70 116.56 05/08/2020 14:52:11 -79.95, 158.64 116.61 2.86 64
3 05/08/2020 15:43:56 79.96, -34.12 63.41 05/08/2020 15:43:17 79.96, -34.18 63.39 1.30 39
4 05/08/2020 16:34:38 -79.93, 132.94 116.65 05/08/2020 16:34:12 -79.96, 133.02 116.63 3.42 26
5 05/08/2020 17:25:18 79.95, -59.59 63.37 05/08/2020 17:25:17 79.94, -59.49 63.37 2.02 1
6 05/08/2020 18:15:59 -79.95, 107.77 116.64 05/08/2020 18:16:12 -79.95, 107.71 116.65 1.32 13
7 05/08/2020 19:06:40 79.93, -85.05 63.33 05/08/2020 19:07:18 79.95, -85.11 63.35 1.93 38
8 05/08/2020 19:57:21 -79.94, 82.31 116.68 05/08/2020 19:58:12 -79.93, 82.41 116.66 1.99 51




NCC Satellite Simultaneous Nadir Overpasses (SNOs) Prediction Service
